FW1310 Weather Reports


time (UTC)temp
C
wind
direction
speed
KPH
gust
KPH
rain 1hr
cm
rain 24hr
cm
rain mn
cm
humidity
%
barometer
mb
20240222105000 17 191 4.8 12.9 0.00 0.00 0.00 87 995.9
20240222104501 17 28 8.0 12.9 0.00 0.00 0.00 87 995.7
20240222104000 17 32 4.8 11.3 0.00 0.00 0.00 87 996.0
20240222103501 17 36 8.0 16.1 0.00 0.00 0.00 86 995.9
20240222102500 17 350 4.8 8.0 0.00 0.00 0.00 86 995.8
20240222101001 17 75 8.0 12.9 0.00 0.00 0.00 85 995.9
20240222100001 17 301 3.2 9.7 0.00 0.00 0.00 84 995.8
20240222095500 17 44 6.4 11.3 0.00 0.00 0.00 84 996.0
20240222094500 17 276 1.6 4.8 0.00 0.00 0.00 84 996.7
20240222094000 17 209 3.2 9.7 0.00 0.00 0.00 84 996.6
20240222093000 17 87 3.2 14.5 0.00 0.00 0.00 84 997.0
20240222092500 17 6 3.2 8.0 0.00 0.00 0.00 84 997.1
20240222092000 17 0 4.8 9.7 0.00 0.00 0.00 84 996.8
20240222091500 17 86 3.2 8.0 0.00 0.00 0.00 84 996.8
20240222090501 17 198 3.2 9.7 0.00 0.00 0.00 84 997.1
20240222090000 17 147 3.2 4.8 0.00 0.00 0.00 84 997.2
20240222084500 17 325 4.8 11.3 0.00 0.00 0.00 84 996.5
20240222084000 17 15 3.2 16.1 0.00 0.00 0.00 84 996.1
20240222083500 17 3 9.7 16.1 0.00 0.00 0.00 84 996.0
20240222083000 17 24 6.4 16.1 0.00 0.00 0.00 85 995.9
20240222082500 17 49 8.0 19.3 0.00 0.00 0.00 85 995.7
20240222082001 17 319 8.0 12.9 0.00 0.00 0.00 85 995.9
20240222081500 17 56 8.0 29.0 0.00 0.00 0.00 86 995.6
20240222080500 17 26 12.9 22.5 0.00 0.00 0.00 86 995.6
20240222080000 17 58 11.3 25.7 0.00 0.00 0.00 86 995.7
20240222075500 17 22 11.3 24.1 0.00 0.00 0.00 86 995.7
20240222075000 17 39 9.7 19.3 0.00 0.00 0.00 86 995.8
20240222074501 17 8 9.7 16.1 0.00 0.00 0.00 86 995.8
20240222073500 17 336 8.0 14.5 0.00 0.00 0.00 86 995.8
20240222073000 17 2 6.4 19.3 0.00 0.00 0.00 86 995.5
20240222072000 17 42 8.0 25.7 0.00 0.00 0.00 86 995.7
20240222071500 17 3 6.4 24.1 0.00 0.00 0.00 86 995.8
20240222071000 17 293 8.0 22.5 0.00 0.00 0.00 86 995.8
20240222070000 17 303 6.4 19.3 0.00 0.00 0.00 86 995.9
20240222065500 17 47 17.7 27.4 0.00 0.00 0.00 86 996.1
20240222065001 17 16 12.9 37.0 0.00 0.00 0.00 86 995.9
20240222064000 17 314 9.7 27.4 0.00 0.00 0.00 86 996.0
20240222063500 17 42 9.7 33.8 0.00 0.00 0.00 86 996.0
20240222063000 17 311 9.7 14.5 0.00 0.00 0.00 86 996.1
20240222062500 17 230 9.7 25.7 0.00 0.00 0.00 86 996.1
20240222061500 17 23 11.3 20.9 0.00 0.00 0.00 86 996.3
20240222060000 17 52 11.3 27.4 0.00 0.00 0.00 85 996.4
20240222054001 17 348 9.7 16.1 0.00 0.00 0.00 85 996.8
20240222053500 17 48 14.5 25.7 0.00 0.00 0.00 85 996.7
20240222052001 17 311 8.0 19.3 0.00 0.00 0.00 85 997.1
20240222051500 17 6 9.7 22.5 0.00 0.00 0.00 85 997.1
20240222051001 17 32 11.3 20.9 0.00 0.00 0.00 85 997.2
20240222050500 17 347 8.0 20.9 0.00 0.00 0.00 85 997.0
20240222050000 17 358 8.0 24.1 0.00 0.00 0.00 85 997.1
20240222045500 17 37 11.3 22.5 0.00 0.00 0.00 85 997.2
20240222045000 17 0 11.3 24.1 0.00 0.00 0.00 84 997.4
20240222044500 17 34 9.7 24.1 0.00 0.00 0.00 84 997.4
20240222044001 18 258 8.0 27.4 0.00 0.00 0.00 84 997.3
20240222043500 18 36 14.5 33.8 0.00 0.00 0.00 84 997.2
20240222043000 18 26 11.3 24.1 0.00 0.00 0.00 84 997.2
20240222042500 18 39 8.0 19.3 0.00 0.00 0.00 84 997.5
20240222042000 18 54 9.7 19.3 0.00 0.00 0.00 84 997.5
20240222041500 18 291 8.0 19.3 0.00 0.00 0.00 83 997.4
20240222041000 18 314 8.0 20.9 0.00 0.00 0.00 83 997.3
20240222040500 18 21 8.0 20.9 0.00 0.00 0.00 83 997.2
20240222040000 18 346 11.3 20.9 0.00 0.00 0.00 83 997.3
20240222035000 18 299 8.0 16.1 0.00 0.00 0.00 82 997.1
20240222034500 18 28 9.7 25.7 0.00 0.00 0.00 82 997.2
20240222033500 18 353 8.0 14.5 0.00 0.00 0.00 81 997.1
20240222032501 18 315 9.7 14.5 0.00 0.00 0.00 80 997.1
20240222031500 18 9 6.4 19.3 0.00 0.00 0.00 79 997.3
20240222031000 18 127 8.0 14.5 0.00 0.00 0.00 78 997.0
20240222030501 18 349 9.7 19.3 0.00 0.00 0.00 78 997.2
20240222025000 18 344 6.4 12.9 0.00 0.00 0.00 76 996.9
20240222024001 19 353 8.0 12.9 0.00 0.00 0.00 75 996.8
20240222023500 19 311 6.4 19.3 0.00 0.00 0.00 75 996.9
20240222023000 19 334 8.0 19.3 0.00 0.00 0.00 74 997.0
20240222022500 19 349 9.7 16.1 0.00 0.00 0.00 74 997.2
20240222022001 19 320 9.7 19.3 0.00 0.00 0.00 74 997.0
20240222021501 20 331 6.4 12.9 0.00 0.00 0.00 74 996.7
20240222021000 20 306 8.0 14.5 0.00 0.00 0.00 74 996.8
20240222020500 20 344 9.7 22.5 0.00 0.00 0.00 73 996.7
20240222020000 20 307 14.5 22.5 0.00 0.00 0.00 73 996.7
20240222015501 20 334 12.9 22.5 0.00 0.00 0.00 72 996.6
20240222015000 20 15 9.7 22.5 0.00 0.00 0.00 72 996.3
20240222014500 20 350 14.5 20.9 0.00 0.00 0.00 72 996.4
20240222014000 20 300 9.7 16.1 0.00 0.00 0.00 71 996.4
20240222013500 20 317 9.7 19.3 0.00 0.00 0.00 71 996.2
20240222013000 21 4 12.9 20.9 0.00 0.00 0.00 71 996.4
20240222012500 21 350 8.0 22.5 0.00 0.00 0.00 70 996.4
20240222012000 21 67 9.7 22.5 0.00 0.00 0.00 70 996.6
20240222011500 21 29 8.0 20.9 0.00 0.00 0.00 69 996.7
20240222011000 21 296 9.7 16.1 0.00 0.00 0.00 69 996.4
20240222010500 21 298 11.3 19.3 0.00 0.00 0.00 67 996.3
20240222010001 21 349 9.7 20.9 0.00 0.00 0.00 67 996.4
20240222005000 21 328 8.0 20.9 0.00 0.00 0.00 66 996.6
20240222004501 21 234 9.7 24.1 0.00 0.00 0.00 66 996.8
20240222004001 22 313 9.7 16.1 0.00 0.00 0.00 66 997.0
20240222003500 22 295 8.0 14.5 0.00 0.00 0.00 67 997.1
20240222003001 22 293 9.7 16.1 0.00 0.00 0.00 66 997.2
20240222002501 22 280 8.0 16.1 0.00 0.00 0.00 66 997.3
20240222001502 22 356 8.0 19.3 0.00 0.00 0.00 65 997.2
20240222001000 22 301 6.4 11.3 0.00 0.00 0.00 65 997.5
20240222000500 22 8 4.8 11.3 0.00 0.00 0.00 65 997.6
20240222000000 23 351 6.4 11.3 0.00 0.00 0.00 64 997.6
20240221235500 23 289 8.0 14.5 0.00 0.00 0.00 64 997.6
20240221235000 23 1 8.0 12.9 0.00 0.00 0.00 63 997.8
20240221234500 23 288 4.8 12.9 0.00 0.00 0.00 62 997.6
20240221234000 23 259 6.4 16.1 0.00 0.00 0.00 62 997.8
20240221233500 23 308 6.4 14.5 0.00 0.00 0.00 62 998.0
20240221233001 23 311 8.0 16.1 0.00 0.00 0.00 62 998.0
20240221232501 23 338 6.4 16.1 0.00 0.00 0.00 62 998.2
20240221232000 23 4 4.8 20.9 0.00 0.00 0.00 62 998.0
20240221231500 23 28 9.7 20.9 0.00 0.00 0.00 62 998.1
20240221231000 23 93 11.3 22.5 0.00 0.00 0.00 61 997.8
20240221230000 23 0 4.8 14.5 0.00 0.00 0.00 60 997.9
20240221225500 23 333 8.0 14.5 0.00 0.00 0.00 61 998.0
20240221225001 23 327 9.7 14.5 0.00 0.00 0.00 60 998.2
20240221224500 23 290 8.0 11.3 0.00 0.00 0.00 60 998.2
20240221223501 23 13 6.4 14.5 0.00 0.00 0.00 58 998.2
20240221223001 23 350 9.7 16.1 0.00 0.00 0.00 58 998.2
20240221222500 23 4 8.0 14.5 0.00 0.00 0.00 57 998.4
20240221222001 23 318 8.0 20.9 0.00 0.00 0.00 57 998.3
20240221221500 23 294 9.7 16.1 0.00 0.00 0.00 57 998.4
20240221221000 23 320 9.7 25.7 0.00 0.00 0.00 56 998.5
20240221220501 24 328 9.7 22.5 0.00 0.00 0.00 53 998.6
20240221220000 24 306 9.7 20.9 0.00 0.00 0.00 54 998.7
20240221215501 24 32 9.7 19.3 0.00 0.00 0.00 53 998.7
20240221215001 23 61 8.0 16.1 0.00 0.00 0.00 54 998.8
20240221214500 24 304 9.7 22.5 0.00 0.00 0.00 54 998.8
20240221214001 24 249 6.4 24.1 0.00 0.00 0.00 53 998.9
20240221213501 24 288 9.7 14.5 0.00 0.00 0.00 55 998.9
20240221212500 23 325 9.7 19.3 0.00 0.00 0.00 57 999.0
20240221212000 23 37 9.7 22.5 0.00 0.00 0.00 57 999.1
20240221211500 24 36 8.0 14.5 0.00 0.00 0.00 58 999.2
20240221211000 23 306 6.4 14.5 0.00 0.00 0.00 60 999.3
20240221210000 23 2 8.0 19.3 0.00 0.00 0.00 57 999.5
20240221205500 23 13 9.7 20.9 0.00 0.00 0.00 60 999.6
20240221205000 23 284 8.0 16.1 0.00 0.00 0.00 59 999.5
20240221204500 23 356 9.7 19.3 0.00 0.00 0.00 60 999.6
20240221203500 23 25 9.7 16.1 0.00 0.00 0.00 62 999.8
20240221203001 23 336 8.0 16.1 0.00 0.00 0.00 63 999.8
20240221202501 23 349 8.0 16.1 0.00 0.00 0.00 63 1000.0
20240221202001 23 337 8.0 19.3 0.00 0.00 0.00 62 999.9
20240221201500 23 357 8.0 25.7 0.00 0.00 0.00 62 1000.1
20240221201001 23 331 11.3 25.7 0.00 0.00 0.00 62 999.9
20240221200500 23 22 8.0 22.5 0.00 0.00 0.00 62 1000.3
20240221200001 24 323 11.3 22.5 0.00 0.00 0.00 60 1000.2
20240221195501 24 291 9.7 14.5 0.00 0.00 0.00 60 1000.3
20240221195000 24 321 9.7 20.9 0.00 0.00 0.00 59 1000.4
20240221194500 24 316 8.0 19.3 0.00 0.00 0.00 60 1000.5
20240221193500 25 16 11.3 22.5 0.00 0.00 0.00 58 1000.7
20240221193000 24 342 8.0 20.9 0.00 0.00 0.00 58 1001.0
20240221192500 24 333 11.3 22.5 0.00 0.00 0.00 59 1001.1
20240221192001 24 320 8.0 16.1 0.00 0.00 0.00 58 1001.2
20240221191500 24 255 9.7 19.3 0.00 0.00 0.00 58 1001.4
20240221190500 24 346 9.7 19.3 0.00 0.00 0.00 60 1001.6
20240221190000 24 333 9.7 20.9 0.00 0.00 0.00 58 1001.6
20240221185000 25 26 8.0 14.5 0.00 0.00 0.00 58 1002.0
20240221184500 24 40 8.0 12.9 0.00 0.00 0.00 59 1001.9
20240221184001 24 327 6.4 11.3 0.00 0.00 0.00 60 1002.1
20240221183501 24 5 9.7 12.9 0.00 0.00 0.00 57 1001.9
20240221183001 24 324 6.4 14.5 0.00 0.00 0.00 59 1002.2
20240221182000 24 0 6.4 12.9 0.00 0.00 0.00 58 1002.4
20240221181501 24 340 4.8 14.5 0.00 0.00 0.00 58 1002.5
20240221181000 24 348 8.0 14.5 0.00 0.00 0.00 57 1002.6
20240221180000 24 353 8.0 16.1 0.00 0.00 0.00 57 1002.8
20240221175500 23 331 8.0 12.9 0.00 0.00 0.00 58 1002.8
20240221175000 23 353 8.0 12.9 0.00 0.00 0.00 58 1003.0
20240221174501 23 41 4.8 14.5 0.00 0.00 0.00 59 1003.2
20240221174000 23 30 9.7 14.5 0.00 0.00 0.00 56 1003.4
20240221173500 23 238 4.8 19.3 0.00 0.00 0.00 57 1003.5
20240221173001 23 345 8.0 24.1 0.00 0.00 0.00 58 1003.5
20240221172500 23 25 6.4 12.9 0.00 0.00 0.00 58 1003.6
20240221172001 23 18 9.7 16.1 0.00 0.00 0.00 59 1003.8
20240221171001 22 315 6.4 12.9 0.00 0.00 0.00 61 1003.9
20240221170000 21 336 8.0 16.1 0.00 0.00 0.00 62 1004.1
20240221165001 21 297 4.8 11.3 0.00 0.00 0.00 63 1004.4
20240221164500 21 322 6.4 14.5 0.00 0.00 0.00 63 1004.3
20240221164000 21 3 4.8 11.3 0.00 0.00 0.00 64 1004.4
20240221163501 21 339 4.8 16.1 0.00 0.00 0.00 64 1004.4
20240221162500 20 290 3.2 14.5 0.00 0.00 0.00 67 1004.5
20240221162000 20 5 9.7 16.1 0.00 0.00 0.00 68 1004.5
20240221161501 20 29 4.8 20.9 0.00 0.00 0.00 69 1004.6
20240221161001 20 309 8.0 20.9 0.00 0.00 0.00 69 1004.7
20240221160501 20 223 4.8 12.9 0.00 0.00 0.00 70 1004.8
20240221155500 19 1 8.0 14.5 0.00 0.00 0.00 74 1004.6
20240221155000 18 342 4.8 19.3 0.00 0.00 0.00 75 1004.6
20240221154501 18 9 8.0 19.3 0.00 0.00 0.00 76 1004.7
20240221154000 18 340 11.3 19.3 0.00 0.00 0.00 75 1004.6
20240221153501 18 38 6.4 12.9 0.00 0.00 0.00 76 1004.7
20240221153001 18 340 4.8 12.9 0.00 0.00 0.00 78 1004.7
20240221152001 17 122 8.0 14.5 0.00 0.00 0.00 78 1004.8
20240221151501 17 5 8.0 19.3 0.00 0.00 0.00 80 1004.7
20240221151000 17 273 3.2 14.5 0.00 0.00 0.00 80 1004.7
20240221150500 17 322 3.2 12.9 0.00 0.00 0.00 81 1004.8
20240221150001 17 50 4.8 12.9 0.00 0.00 0.00 81 1004.8
20240221145501 17 29 3.2 11.3 0.00 0.00 0.00 83 1004.6
20240221145000 16 14 3.2 22.5 0.00 0.00 0.00 84 1004.5
20240221144500 16 7 6.4 24.1 0.00 0.00 0.00 84 1004.4
20240221143501 16 329 6.4 19.3 0.00 0.00 0.00 86 1004.4
20240221142501 16 125 4.8 11.3 0.00 0.00 0.00 87 1004.4
20240221141500 16 167 3.2 8.0 0.00 0.00 0.00 87 1004.3
20240221141001 15 66 6.4 9.7 0.00 0.00 0.00 87 1004.4
20240221140501 15 12 3.2 14.5 0.00 0.00 0.00 88 1004.4
20240221140001 15 344 6.4 12.9 0.00 0.00 0.00 88 1004.2
20240221135500 15 290 3.2 8.0 0.00 0.00 0.00 89 1004.3
20240221135001 15 6 4.8 12.9 0.00 0.00 0.00 89 1004.3
20240221134501 15 32 4.8 12.9 0.00 0.00 0.00 89 1004.3
20240221134001 15 48 4.8 9.7 0.00 0.00 0.00 89 1004.3
20240221133500 15 346 1.6 3.2 0.00 0.00 0.00 89 1004.4
20240221133000 15 15 3.2 8.0 0.00 0.00 0.00 89 1004.3
20240221132500 15 331 3.2 8.0 0.00 0.00 0.00 89 1004.4
20240221132001 15 2 4.8 9.7 0.00 0.00 0.00 89 1004.4
20240221131501 15 312 3.2 11.3 0.00 0.00 0.00 89 1004.3
20240221130501 15 55 8.0 14.5 0.00 0.00 0.00 89 1004.1
20240221130000 15 349 8.0 14.5 0.00 0.00 0.00 89 1004.2
20240221125500 15 321 8.0 14.5 0.00 0.00 0.00 90 1004.2
20240221125000 15 59 3.2 14.5 0.00 0.00 0.00 90 1004.2
20240221124501 15 50 6.4 11.3 0.00 0.00 0.00 90 1004.2
20240221124001 15 32 3.2 12.9 0.00 0.00 0.00 90 1004.3
20240221123501 15 325 3.2 12.9 0.00 0.00 0.00 90 1004.2
20240221123000 15 14 8.0 12.9 0.00 0.00 0.00 90 1004.2
20240221122500 15 346 3.2 12.9 0.00 0.00 0.00 90 1004.2
20240221122000 15 65 4.8 9.7 0.00 0.00 0.00 90 1004.3
20240221121501 15 278 4.8 9.7 0.00 0.00 0.00 91 1004.0
20240221121001 15 359 3.2 11.3 0.00 0.00 0.00 91 1004.2
20240221120501 15 19 4.8 11.3 0.00 0.00 0.00 91 1004.2
20240221120000 15 75 6.4 11.3 0.00 0.00 0.00 91 1004.2
20240221115500 15 302 4.8 12.9 0.00 0.00 0.00 91 1004.2
20240221115001 15 1 4.8 9.7 0.00 0.00 0.00 91 1004.1
20240221114501 15 17 3.2 8.0 0.00 0.00 0.00 91 1004.0
20240221114001 15 13 4.8 11.3 0.00 0.00 0.00 91 1004.0
20240221112501 15 37 4.8 12.9 0.00 0.00 0.00 92 1003.8
20240221112001 15 2 8.0 19.3 0.00 0.00 0.00 92 1003.9
20240221111500 15 37 4.8 11.3 0.00 0.00 0.00 92 1003.7
20240221111000 15 351 4.8 14.5 0.00 0.00 0.00 92 1003.7
20240221110001 15 4 4.8 12.9 0.00 0.00 0.00 91 1003.7